FW5436 Weather Reports


Display with metric or nautical units.
time (UTC)temp
F
wind
direction
speed
MPH
gust
MPH
rain 1hr
in
rain 24hr
in
rain mn
in
humidity
%
barometer
mb
20260510061605 46 45 2.0 13.0 0.00 0.00 0.04 91 1014.7
20260510061055 46 45 4.0 13.0 0.00 0.00 0.04 91 1014.7
20260510055524 46 68 2.0 11.0 0.00 0.00 0.04 91 1014.9
20260510055014 46 45 5.0 13.0 0.00 0.00 0.04 91 1015.0
20260510054504 46 338 2.0 13.0 0.00 0.00 0.04 92 1015.0
20260510053953 46 0 6.0 13.0 0.00 0.00 0.04 92 1015.0
20260510053453 46 68 4.0 7.0 0.00 0.00 0.04 93 1015.2
20260510052845 46 68 3.0 9.0 0.00 0.02 0.04 93 1015.3
20260510052335 46 68 3.0 11.0 0.00 0.02 0.04 94 1015.5
20260510051825 46 338 4.0 11.0 0.01 0.02 0.04 94 1015.2
20260510051315 47 68 3.0 11.0 0.01 0.02 0.04 94 1015.1
20260510050804 47 338 3.0 9.0 0.01 0.02 0.04 94 1015.1
20260510045744 47 90 2.0 13.0 0.01 0.02 0.04 94 1015.2
20260510045234 47 68 4.0 13.0 0.02 0.02 0.04 94 1015.0
20260510044724 47 135 2.0 11.0 0.02 0.02 0.04 94 1015.2
20260510044213 47 23 3.0 8.0 0.02 0.02 0.04 94 1015.3
20260510043153 47 68 2.0 11.0 0.02 0.02 0.04 94 1015.0
20260510042642 47 135 3.0 11.0 0.02 0.02 0.04 94 1015.2
20260510042133 47 248 4.0 11.0 0.01 0.01 0.02 94 1015.0
20260510041638 47 68 4.0 11.0 0.01 0.01 0.02 94 1015.0
20260510041112 47 135 4.0 9.0 0.01 0.01 0.02 94 1015.0
20260510040602 47 45 3.0 9.0 0.01 0.01 0.02 94 1014.8
20260510040049 47 45 1.0 9.0 0.01 0.01 0.02 94 1015.0
20260510035542 47 68 2.0 9.0 0.01 0.01 0.02 94 1014.7
20260510035032 47 68 3.0 11.0 0.00 0.00 0.01 94 1015.1
20260510034521 47 315 3.0 11.0 0.00 0.00 0.01 93 1015.2
20260510034011 47 68 4.0 11.0 0.00 0.00 0.01 93 1014.8
20260510033501 47 45 4.0 11.0 0.00 0.00 0.01 93 1014.9
20260510031824 47 45 3.0 11.0 0.01 0.01 0.01 92 1014.9
20260510031313 47 90 3.0 9.0 0.00 0.00 0.00 92 1014.9
20260510030807 47 68 3.0 6.0 0.00 0.00 0.00 91 1015.0
20260510030252 47 90 3.0 9.0 0.00 0.00 0.00 91 1014.9
20260510025741 47 68 3.0 9.0 0.00 0.00 0.06 90 1014.9
20260510025231 47 113 2.0 7.0 0.00 0.00 0.06 90 1015.1
20260510024722 47 68 3.0 11.0 0.00 0.00 0.06 90 1015.0
20260510024211 47 45 4.0 11.0 0.00 0.00 0.06 90 1014.9
20260510023701 47 68 3.0 11.0 0.00 0.00 0.06 90 1014.8
20260510023151 47 23 4.0 11.0 0.00 0.00 0.06 90 1014.8
20260510022641 47 23 3.0 9.0 0.00 0.00 0.06 90 1014.8
20260510021620 46 68 4.0 11.0 0.00 0.00 0.06 90 1014.9
20260510021111 46 68 3.0 11.0 0.00 0.00 0.06 90 1014.7
20260510020604 46 68 4.0 8.0 0.00 0.00 0.06 90 1014.6
20260510020050 46 23 3.0 8.0 0.00 0.00 0.06 89 1014.5
20260510015540 46 45 2.0 8.0 0.00 0.00 0.06 89 1014.6
20260510015030 46 338 2.0 9.0 0.00 0.00 0.06 89 1014.5
20260510014520 46 45 3.0 9.0 0.00 0.00 0.06 89 1014.5
20260510014015 46 68 2.0 11.0 0.00 0.00 0.06 89 1014.4
20260510013500 46 45 3.0 11.0 0.00 0.00 0.06 88 1014.5
20260510012949 46 248 3.0 7.0 0.00 0.00 0.06 88 1014.4
20260510012439 46 45 2.0 9.0 0.00 0.00 0.06 88 1014.3
20260510011929 46 45 2.0 9.0 0.00 0.00 0.06 88 1014.3
20260510011418 46 23 3.0 8.0 0.00 0.00 0.06 88 1014.4
20260510010909 46 68 3.0 8.0 0.00 0.00 0.06 88 1014.4
20260510005849 46 68 2.0 9.0 0.00 0.00 0.06 87 1014.3
20260510005338 46 23 2.0 7.0 0.00 0.00 0.06 86 1014.5
20260510004828 46 45 2.0 7.0 0.00 0.00 0.06 86 1014.5
20260510003807 47 0 2.0 8.0 0.00 0.00 0.06 85 1014.4
20260510003257 46 68 3.0 8.0 0.00 0.00 0.06 86 1014.3
20260510002748 46 90 2.0 6.0 0.00 0.00 0.06 86 1014.3
20260510002238 46 45 2.0 7.0 0.00 0.00 0.06 86 1014.1
20260510001727 46 23 2.0 8.0 0.00 0.00 0.06 86 1014.0
20260510000707 46 68 2.0 8.0 0.00 0.00 0.06 86 1014.1
20260510000157 46 90 2.0 7.0 0.00 0.00 0.06 87 1014.1
20260509235646 45 0 3.0 6.0 0.00 0.00 0.06 87 1014.2
20260509235136 45 45 2.0 6.0 0.00 0.00 0.06 86 1014.1
20260509234628 45 23 2.0 4.0 0.00 0.00 0.06 86 1013.9
20260509232411 46 45 2.0 6.0 0.00 0.00 0.06 85 1013.9
20260509231906 46 45 3.0 6.0 0.00 0.00 0.06 84 1013.9
20260509231352 46 315 2.0 7.0 0.00 0.00 0.06 84 1014.1
20260509230332 46 45 2.0 6.0 0.00 0.00 0.06 83 1014.0
20260509225822 46 23 2.0 8.0 0.00 0.00 0.06 82 1013.8
20260509224801 46 45 2.0 4.0 0.00 0.00 0.06 81 1013.9
20260509224252 46 23 2.0 4.0 0.00 0.00 0.06 80 1014.0
20260509223740 46 45 1.0 8.0 0.00 0.00 0.06 79 1013.9
20260509223230 47 270 3.0 8.0 0.00 0.00 0.06 79 1013.9
20260509222720 47 90 2.0 6.0 0.00 0.00 0.06 78 1013.8
20260509222211 47 23 2.0 8.0 0.00 0.00 0.06 78 1013.8
20260509221700 47 90 2.0 8.0 0.00 0.00 0.06 78 1013.8
20260509221150 47 68 2.0 6.0 0.00 0.00 0.06 77 1013.7
20260509220640 47 68 1.0 6.0 0.00 0.00 0.06 77 1013.6
20260509220129 47 315 1.0 6.0 0.00 0.00 0.06 77 1013.5
20260509215619 47 90 2.0 6.0 0.00 0.00 0.06 77 1013.5
20260509215115 47 68 2.0 4.0 0.00 0.00 0.06 77 1013.3
20260509214558 47 45 1.0 6.0 0.00 0.00 0.06 77 1013.6
20260509214049 47 45 2.0 8.0 0.00 0.00 0.06 76 1013.5
20260509213538 47 68 3.0 8.0 0.00 0.00 0.06 76 1013.3
20260509213030 48 45 2.0 4.0 0.00 0.00 0.06 76 1013.2
20260509211458 48 338 1.0 4.0 0.00 0.00 0.06 76 1013.0
20260509210948 48 113 2.0 4.0 0.00 0.00 0.06 75 1013.1
20260509205929 49 68 1.0 6.0 0.00 0.00 0.06 73 1012.9
20260509205418 49 45 2.0 6.0 0.00 0.00 0.06 71 1012.9
20260509204907 49 135 1.0 6.0 0.00 0.00 0.06 70 1012.8
20260509204357 50 90 2.0 8.0 0.00 0.00 0.06 70 1012.5
20260509203337 50 23 3.0 7.0 0.00 0.00 0.06 69 1012.6
20260509201806 52 0 2.0 11.0 0.00 0.00 0.06 66 1012.3
20260509201257 52 338 3.0 11.0 0.00 0.00 0.06 65 1012.4
20260509200750 52 270 2.0 4.0 0.00 0.00 0.06 63 1012.1
20260509191214 55 315 4.0 8.0 0.00 0.06 0.06 60 1011.8
20260509185134 55 113 3.0 9.0 0.00 0.06 0.06 64 1011.5
20260509184624 55 0 4.0 8.0 0.00 0.06 0.06 63 1011.5
20260509184114 54 23 3.0 9.0 0.00 0.06 0.06 65 1011.5
20260509183054 53 45 5.0 13.0 0.00 0.06 0.06 64 1011.2
20260509182544 54 0 5.0 9.0 0.00 0.06 0.06 64 1011.2
20260509182034 53 45 4.0 8.0 0.00 0.06 0.06 72 1011.1
20260509181523 52 135 2.0 8.0 0.00 0.06 0.06 75 1011.5
20260509180503 51 315 2.0 14.0 0.00 0.06 0.06 76 1011.2
20260509175953 52 135 3.0 16.0 0.00 0.06 0.06 75 1011.2
20260509174933 55 68 3.0 15.0 0.00 0.06 0.06 65 1011.0
20260509174422 55 23 3.0 11.0 0.00 0.06 0.06 66 1010.8
20260509173912 55 180 3.0 15.0 0.00 0.06 0.06 66 1010.9
20260509173402 55 23 4.0 15.0 0.00 0.06 0.06 64 1010.8
20260509172852 55 0 3.0 15.0 0.00 0.06 0.06 64 1010.7
20260509172342 54 113 6.0 15.0 0.00 0.06 0.06 64 1010.8
20260509171832 54 315 3.0 14.0 0.00 0.06 0.06 66 1010.8
20260509171321 54 68 3.0 14.0 0.00 0.06 0.06 69 1010.6
20260509170811 53 23 4.0 11.0 0.00 0.06 0.06 70 1010.6
20260509165241 53 23 3.0 8.0 0.00 0.06 0.06 73 1010.4
20260509164730 53 338 3.0 9.0 0.00 0.06 0.06 72 1010.6
20260509164227 53 45 4.0 9.0 0.00 0.06 0.06 73 1010.6
20260509163711 53 45 4.0 13.0 0.00 0.06 0.06 73 1010.7
20260509163200 53 225 3.0 13.0 0.00 0.06 0.06 74 1010.3
20260509162651 53 135 4.0 11.0 0.00 0.06 0.06 75 1010.4
20260509162140 53 23 2.0 11.0 0.00 0.06 0.06 75 1010.2
20260509161630 53 0 3.0 11.0 0.00 0.06 0.06 75 1010.3
20260509161120 53 45 5.0 11.0 0.00 0.06 0.06 76 1010.2
20260509160610 53 23 3.0 9.0 0.00 0.06 0.06 76 1010.4
20260509155040 53 0 4.0 9.0 0.00 0.06 0.06 79 1010.3
20260509154529 52 0 4.0 11.0 0.00 0.06 0.06 80 1010.1
20260509154019 52 23 3.0 11.0 0.00 0.06 0.06 81 1010.1
20260509153509 51 113 4.0 11.0 0.00 0.06 0.06 81 1010.1
20260509152959 51 338 4.0 9.0 0.00 0.06 0.06 83 1010.1
20260509151428 50 90 3.0 7.0 0.01 0.06 0.06 88 1009.9
20260509150919 50 113 2.0 8.0 0.01 0.06 0.06 89 1009.9
20260509150408 50 315 4.0 8.0 0.01 0.06 0.06 89 1009.6
20260509145347 50 338 2.0 9.0 0.01 0.06 0.06 90 1009.7
20260509144328 50 45 3.0 11.0 0.01 0.06 0.06 91 1009.5
20260509143817 50 23 2.0 11.0 0.01 0.06 0.06 91 1009.4
20260509143308 50 90 4.0 11.0 0.01 0.06 0.06 91 1009.4
20260509142757 50 270 3.0 11.0 0.01 0.06 0.06 92 1009.4
20260509141227 50 23 4.0 11.0 0.00 0.05 0.05 91 1008.9
20260509140717 50 90 3.0 8.0 0.00 0.05 0.05 91 1008.8
20260509140206 50 315 3.0 8.0 0.00 0.05 0.05 91 1008.9
20260509135656 50 158 3.0 7.0 0.01 0.05 0.05 92 1008.6
20260509135146 50 45 2.0 8.0 0.01 0.05 0.05 92 1008.7
20260509133616 50 45 4.0 9.0 0.01 0.05 0.05 92 1008.2
20260509133105 50 45 2.0 9.0 0.01 0.05 0.05 92 1008.0
20260509132555 50 180 4.0 9.0 0.01 0.05 0.05 92 1007.9
20260509132045 50 23 4.0 8.0 0.01 0.05 0.05 92 1007.8
20260509131539 50 23 3.0 9.0 0.01 0.05 0.05 93 1007.8
20260509131025 50 45 4.0 11.0 0.01 0.05 0.05 93 1007.8
20260509130515 50 90 3.0 11.0 0.01 0.05 0.05 93 1007.6
20260509130018 50 0 4.0 11.0 0.01 0.05 0.05 93 1007.5
20260509125454 50 68 4.0 11.0 0.00 0.04 0.04 93 1007.5
20260509124945 50 45 4.0 11.0 0.00 0.04 0.04 93 1007.3
20260509124433 50 45 2.0 9.0 0.00 0.04 0.04 93 1007.3
20260509123414 50 338 2.0 6.0 0.00 0.04 0.04 93 1007.1
20260509122903 50 248 3.0 9.0 0.00 0.04 0.04 93 1006.8
20260509122354 50 0 2.0 9.0 0.00 0.04 0.04 93 1006.8
20260509121333 50 90 2.0 11.0 0.00 0.04 0.04 93 1006.5
20260509120824 50 45 2.0 11.0 0.00 0.04 0.04 93 1006.5
20260509120313 50 45 4.0 8.0 0.00 0.04 0.04 94 1006.3
20260509115802 50 0 3.0 8.0 0.00 0.04 0.04 94 1006.3
20260509115252 50 68 4.0 8.0 0.00 0.04 0.04 94 1006.2
20260509114233 50 338 2.0 8.0 0.01 0.04 0.04 94 1006.0
20260509113212 49 90 3.0 9.0 0.01 0.04 0.04 95 1005.7
20260509112701 49 45 4.0 11.0 0.01 0.04 0.04 95 1005.6
20260509112152 49 90 4.0 11.0 0.01 0.04 0.04 95 1005.6
20260509111642 49 23 2.0 9.0 0.01 0.04 0.04 95 1005.5
20260509110621 49 90 3.0 9.0 0.01 0.04 0.04 95 1005.3
20260509110111 49 45 3.0 8.0 0.01 0.04 0.04 95 1005.2
20260509105601 49 23 3.0 8.0 0.01 0.04 0.04 95 1005.0
20260509105052 49 68 3.0 8.0 0.01 0.04 0.04 95 1004.8
20260509104542 49 0 4.0 7.0 0.00 0.02 0.02 95 1004.9
20260509104031 49 23 4.0 8.0 0.00 0.02 0.02 95 1004.8
20260509103013 49 23 3.0 7.0 0.00 0.02 0.02 95 1004.4
20260509102501 49 248 2.0 11.0 0.00 0.02 0.02 95 1004.3
20260509101951 49 45 3.0 11.0 0.00 0.02 0.02 95 1004.2
20260509101440 49 315 2.0 11.0 0.00 0.02 0.02 95 1004.0
20260509100929 49 90 2.0 11.0 0.00 0.02 0.02 95 1003.9
20260509100420 49 158 2.0 8.0 0.00 0.02 0.02 95 1004.1
20260509095909 49 90 3.0 9.0 0.00 0.02 0.02 96 1003.8
20260509094850 49 68 2.0 11.0 0.00 0.02 0.02 96 1003.7
20260509093829 49 45 2.0 11.0 0.01 0.02 0.02 96 1003.1
20260509093319 49 90 3.0 11.0 0.01 0.02 0.02 96 1003.4
20260509092808 49 45 4.0 9.0 0.01 0.02 0.02 96 1003.0
20260509091752 48 23 2.0 11.0 0.01 0.02 0.02 96 1002.8
20260509091239 48 23 4.0 11.0 0.01 0.02 0.02 96 1002.7
20260509090728 48 338 2.0 15.0 0.02 0.02 0.02 96 1002.8
20260509090218 48 45 4.0 15.0 0.02 0.02 0.02 96 1002.6
20260509085708 48 68 4.0 11.0 0.02 0.02 0.02 96 1002.4
20260509083627 48 45 4.0 11.0 0.01 0.01 0.01 95 1002.3
20260509083117 48 68 4.0 11.0 0.01 0.01 0.01 95 1002.2
20260509082607 48 45 4.0 13.0 0.01 0.01 0.01 95 1002.2
20260509082057 48 45 4.0 15.0 0.01 0.01 0.01 95 1002.0
20260509081546 48 23 4.0 15.0 0.01 0.01 0.01 95 1001.9
20260509080526 47 45 4.0 11.0 0.00 0.00 0.00 95 1002.0
20260509080016 47 68 4.0 14.0 0.00 0.00 0.00 95 1001.8
20260509075507 47 45 4.0 14.0 0.00 0.00 0.00 95 1001.8
20260509074955 47 68 2.0 11.0 0.00 0.00 0.00 94 1001.8
20260509074447 47 90 4.0 13.0 0.00 0.00 0.00 94 1001.8
20260509073936 47 45 4.0 13.0 0.00 0.00 0.00 94 1001.6
20260509072915 47 23 7.0 14.0 0.00 0.00 0.00 93 1001.8
20260509071855 46 68 2.0 13.0 0.00 0.00 0.00 93 1001.6
20260509071346 46 68 4.0 13.0 0.00 0.00 0.00 93 1001.6
20260509070834 46 68 3.0 14.0 0.00 0.00 0.00 93 1001.4
20260509065306 46 23 3.0 16.0 0.00 0.00 0.00 93 1001.4
20260509064754 46 0 3.0 14.0 0.00 0.00 0.00 92 1001.7
20260509064243 46 68 7.0 16.0 0.00 0.00 0.00 92 1001.6
20260509062714 46 23 3.0 15.0 0.00 0.00 0.00 92 1001.5
20260509062203 46 45 7.0 15.0 0.00 0.00 0.00 91 1001.7